{"data":{"norad_id":43461,"epoch":"2026-09-20T05:07:25.879008Z","epoch_age_seconds":43102,"freshness":"FRESH","line1":"1 43461U 18043A   26263.21349397  .00000204  00000+0  52051-4 0  9993","line2":"2 43461  98.4697 236.8549 0002630 121.3663 238.7795 14.60659395445566","mean_motion":14.60659395,"eccentricity":0.000263,"inclination_deg":98.4697,"raan_deg":236.8549,"arg_perigee_deg":121.3663,"mean_anomaly_deg":238.7795,"bstar":5.2051e-5,"rev_number":44556,"period_min":98.5856117401,"perigee_km":689.18646806332,"apogee_km":692.90485814411,"semimajor_km":7069.1826631037,"source":"CELESTRAK","updated_at":"2026-09-20T09:00:33.973088Z"}}